Regional Weather Roundup
Issued by NWS Upton, NY

Current Version | Previous Version | Graphics & Text | Print | Product List | Glossary Off
Versions: 1 2 3 4 5 6 7 8 9 10 11 12 13 14 15 16 17 18 19 20 21 22 23 24 25 26 27 28 29 30 31 32 33 34 35 36 37 38 39 40 41 42 43 44 45 46 47 48 49 50

606
ASUS41 KOKX 222109
RWROKX

REGIONAL WEATHER ROUNDUP
NATIONAL WEATHER SERVICE NEW YORK NY
500 PM EDT THU JUN 22 2017

NOTE: "FAIR" INDICATES FEW OR NO CLOUDS BELOW 12,000 FEET WITH NO
SIGNIFICANT WEATHER AND/OR OBSTRUCTIONS TO VISIBILITY.

NYZ071-072-176-178-NJZ106-104-222200-
NEW YORK CITY METRO AREA

CITY           SKY/WX    TMP DP  RH WIND       PRES   REMARKS
Central Park   MOSUNNY   81  63  54 MISG      29.96S
Bronx Bot Gard   N/A     82  61  47 S5        29.95S
LaGuardia APRT PTSUNNY   82  59  45 S15G22    29.92F
Kennedy INTL   PTSUNNY   78  66  66 S8        29.95F
Breezy Point     N/A     70 N/A N/A SE8         N/A
Newark/Liberty PTSUNNY   84  64  50 SE9       29.92F
Teterboro      MOSUNNY   85  62  46 S12       29.90F
$$

NYZ177-179-078>081-222200-
LONG ISLAND NEW YORK

CITY           SKY/WX    TMP DP  RH WIND       PRES   REMARKS
Jones Beach      N/A     72 N/A N/A S9          N/A
Matinecock PT    N/A    N/A N/A N/A SW9G15      N/A
Farmingdale    NOT AVBL
MacArthur/ISP  MOSUNNY   77  62  59 S9        29.95F
Shirley        SUNNY     76  56  49 S12       29.96F
Mt Sinai Harb    N/A    N/A N/A N/A S9          N/A
Westhampton    SUNNY     74  51  44 S10       29.97F
East Hampton   FAIR      74  51  44 SW10      29.94F
Montauk          N/A     75  54  47 SW9       29.96F
$$

NYZ052-065-067-222200-
HUDSON VALLEY

CITY           SKY/WX    TMP DP  RH WIND       PRES   REMARKS
White Plains   MOSUNNY   81  57  44 S10G20    29.92F
Larchmont Harb   N/A     75 N/A N/A S14         N/A
Croton O-T Hud   N/A     82 N/A N/A SW6         N/A
Newburgh       MOSUNNY   82  64  54 SW8       29.92F
Montgomery     CLOUDY    83  62  49 SW12      29.89F
Poughkeepsie   MOSUNNY   83  60  45 SW6       29.88F
Albany         PTSUNNY   80  57  45 S7        29.89F
$$

NJZ001-105-106-008-010-013-015-019>022-104-222200-
NEW JERSEY

CITY           SKY/WX    TMP DP  RH WIND       PRES   REMARKS
Newark/Liberty PTSUNNY   84  64  50 SE9       29.92F
Teterboro      MOSUNNY   85  62  46 S12       29.90F
Caldwell       MOSUNNY   87  62  43 S5        29.91F
Somerville     MOSUNNY   88  67  49 VRB3      29.90F HX  91
Linden         FAIR      83  62  48 SE8       29.92F
Perth Amboy      N/A     81 N/A N/A E5          N/A
Sussex         SUNNY     84  63  49 SW7       29.90F
Andover          N/A     84  62  47 SW7       29.92F
Trenton        CLOUDY    88  64  44 W7G16     29.91F
Millville      CLOUDY    83  72  69 VRB3      29.95F
Atlantic City  CLOUDY    81  69  67 S9        29.95F
Wrightstown    CLOUDY    86  67  52 W15       29.90F
Toms River     MOSUNNY   84  66  54 S13       29.94F
Belmar         MOSUNNY   81  63  54 SE10      29.95F
$$

PAZ047>061-062-071-222200-
EASTERN PENNSYLVANIA

CITY           SKY/WX    TMP DP  RH WIND       PRES   REMARKS
Philadelphia   CLOUDY    88  66  48 SW13      29.93F HX  90
Allentown      PTSUNNY   87  65  47 W12G20    29.92F
Scranton       SUNNY     84  63  49 SW10      29.93F
$$

CTZ002-004>006-009-010-012-RIZ004-006-007-MAZ004-011-015-222200-
SOUTHERN NEW ENGLAND
 IN CT

CITY           SKY/WX    TMP DP  RH WIND       PRES   REMARKS
Bradley INTL   PTSUNNY   84  52  33 W13       29.90F
Hartford       MOSUNNY   84  55  36 W8        29.89F
Danbury        SUNNY     83  60  45 SW10      29.92F
Wtrbury/Oxford MOSUNNY   81  55  41 W9        29.96F
Bridgeport     MOSUNNY   82  60  47 S14       29.92F
Meriden        MOSUNNY   82  61  48 S8        29.90F
New Haven      SUNNY     79  61  53 S12       29.92F
Chester        FAIR      79  59  50 SW8G14    29.94F
Groton         MOSUNNY   74  60  61 SW14      29.92S
Wilimantic     SUNNY     85  52  32 W10G17    29.90F

 IN RI

CITY           SKY/WX    TMP DP  RH WIND       PRES   REMARKS
Providence     MOSUNNY   83  52  34 W13G23    29.90S
Block Island   SUNNY     72  55  55 SW16      29.95F
Westerly       SUNNY     77  57  50 SW10G20   29.94F
 IN MA

CITY           SKY/WX    TMP DP  RH WIND       PRES   REMARKS
Boston         PTSUNNY   84  52  33 NW10      29.88S
Worcester      SUNNY     79  48  33 W13       29.93F
Westfield      SUNNY     82  53  36 W8        29.90F
Provincetown   NOT AVBL
Nantucket      SUNNY     67  58  72 SW12      29.94F
$$

ANZ330-335-338-340-345-350-353-355-222200-
COASTAL MARINE OBSERVATIONS


STATION/POSITION TIME  SKY/WX   TEMP    WIND        PRES    VSBY  WAVE
                                AIR SEA DIR/SP/G                  HT/PER
                 (UTC)          (F)     (DEG/KT/KT) (MB)    (MI)  (FT/S)
NY HARB ENTRANCE 2050            69 67  170/ 10/ 12 1013.6          2/ 7
20 S FIRE ISLAND 2050            69 69  190/  8/ 10 1013.5          2/ 5
GREAT SOUTH BAY  2015            71 76  200/ 10/ 14   N/A
23 SSW MONTAUK P 1950            68 66              1015.0          3/ 6
15 E BARNEGAT LI 2030               69                N/A           2/ 5
HUDSON CANYON    2050            70 66  190/  6/  8 1014.7          2/ 6
KINGS POINT      2030            75 69  220/ 13/ 16 1013.4
EXECUTION ROCKS  2045            76     180/ 12/ 16   N/A
CENTRAL LI SOUND 2015            75     200/ 12/ 14   N/A           0
EASTERN LI SOUND NOT AVBL
ROBBINS REEF     2024                   170/ 18/ 19 1014.0
$$


>>>>>>>>>>>>>>>>>>>>>>>>>>>> KEY <<<<<<<<<<<<<<<<<<<<<<<<<<<
>                                                          <
>     SKY/WX - Sky Condition/Present Weather               <
>     TMP    - Temperature in Fahrenheit                   <
>     DP     - Dew Point in Fahrenheit                     <
>     RH     - Relative Humidity in Percent                <
>     WIND   - Direction (from) and Speed in MPH           <
>     PRES   - Mean Sea Level Pressure (inches of Hg)      <
>     WCI    - Wind Chill Index                            <
>     VSB    - VISIBILITY IN MILES                         <
>     HX     - HEAT INDEX                                  <
>     TC     - TEMPERATURE IN CELSIUS                      <
>     VRB    - VARIABLE WIND DIRECTION                     <
>                                                          <
>>>>>>>>>>>>>>>>>>>>>>>>>>>> KEY <<<<<<<<<<<<<<<<<<<<<<<<<<<




USA.gov is the U.S. government's official web portal to all federal, state and local government web resources and services.